User: anonymous   Login
Location: Blue Mountain Vista Observatory
(40.6992°N, 75.9422°W)
Time: 02:25:17
(UTC-04:00)
Language:

CZ-4C R/B - Orbit

View from above orbital plane
View from above orbital plane
View from above satellite
View from above satellite

Ground track
Ground track

The orbit data is extracted from the following two-line orbital elements,

1 36416U 10009D   15124.17422194 -.00000034  00000-0  50844-4 0  9996
2 36416 063.4459 180.8489 0311047 358.9833 001.0536 13.69463584258230
Epoch (UTC): 04 May 2015 04:10:52
Eccentricity: 0.0311047
inclination: 63.4459°
perigee height: 772 km
apogee height: 1231 km
right ascension of ascending node: 180.8489°
argument of perigee: 358.9833°
revolutions per day: 13.69463584
mean anomaly at epoch: 1.0536°
orbit number at epoch: 25823

The dashed part of the orbit path shows where the satellite is in the earth's shadow,  

DLR